New Paris, IN

8:36 AM EST on January 23, 2017 (GMT -0500)
Goshen Municipal

Weather History for KGSH - April, 2014

Change the Weather History Date:

Tuesday, April 29, 2014

  Actual Average Record
Temperature  
Mean Temperature 62 °F -  
Max Temperature 75 °F 64 °F 83 °F (1970)
Min Temperature 48 °F 41 °F 27 °F (1979)
Degree Days  
Heating Degree Days 4    
Growing Degree Days 12 (Base 50)    
Moisture  
Dew Point 50 °F    
Average Humidity 80    
Maximum Humidity 97    
Minimum Humidity 29    
Precipitation  
Precipitation 0.27 in - - ()
Sea Level Pressure  
Sea Level Pressure 29.56 in    
Wind  
Wind Speed 13 mph (SE)    
Max Wind Speed 30 mph    
Max Gust Speed 54 mph    
Visibility 6 miles    
Events Fog , Rain    
Averages and records for this station are not official NWS values.
T = Trace of Precipitation, MM = Missing Value Source: NWS Daily Summary

Daily Weather History Graph

Daily Weather History Graph

Search for Another Location

Airport or City:

Trip Planner

Search our weather history database for the weather conditions in past years. The results will help you decide how hot, cold, wet, or windy it might be!

Date:

Astronomy

Apr. 29, 2014 Rise Set
Actual Time 6:42 AM EDT 8:38 PM EDT
Civil Twilight 6:12 AM EDT 9:08 PM EDT
Nautical Twilight 5:36 AM EDT 9:45 PM EDT
Astronomical Twilight 4:56 AM EDT 10:25 PM EDT
Moon 7:00 AM EDT (4/29) 9:18 PM EDT (4/29)
Length of Visible Light 14h 56m
Length of Day
13h 56m
New Moon, 0% of the Moon is Illuminated
Apr 29
New Moon
May 6
First Quarter
May 14
Full
May 21
Last Quarter
May 28
New

Hourly Weather History & Observations

Time (EDT) Temp. Dew Point Humidity Pressure Visibility Wind Dir Wind Speed Gust Speed Precip Events Conditions
12:53 AM 48.9 °F 46.9 °F 93% 29.62 in 3.0 mi East 19.6 mph - 0.00 in Rain Light Rain
1:34 AM 50.0 °F 48.0 °F 93% 29.59 in 2.5 mi East 16.1 mph - 0.01 in Rain Light Rain
1:53 AM 50.0 °F 48.0 °F 93% 29.58 in 2.5 mi East 13.8 mph - 0.01 in   Overcast
2:01 AM 50.0 °F 48.0 °F 93% 29.57 in 3.0 mi East 15.0 mph - N/A   Overcast
2:24 AM 51.1 °F 48.9 °F 92% 29.55 in 4.0 mi East 18.4 mph - 0.00 in Rain Light Rain
2:53 AM 51.1 °F 48.9 °F 92% 29.56 in 5.0 mi ESE 10.4 mph - 0.02 in Rain Light Rain
3:21 AM 52.0 °F 50.0 °F 93% 29.55 in 2.0 mi ESE 10.4 mph - 0.05 in Rain Rain
3:37 AM 51.1 °F 50.0 °F 96% 29.53 in 1.8 mi ESE 13.8 mph - 0.17 in Rain Heavy Rain
3:53 AM 52.0 °F 50.0 °F 93% 29.53 in 4.0 mi ESE 10.4 mph - 0.18 in Rain Light Rain
4:02 AM 52.0 °F 50.0 °F 93% 29.53 in 4.0 mi ESE 13.8 mph - 0.00 in Rain Light Rain
4:12 AM 52.0 °F 50.0 °F 93% 29.53 in 6.0 mi ESE 13.8 mph - 0.00 in Rain Light Rain
4:53 AM 52.0 °F 50.0 °F 93% 29.53 in 9.0 mi SSE 4.6 mph - 0.00 in   Overcast
5:53 AM 52.0 °F 50.0 °F 93% 29.51 in 5.0 mi East 8.1 mph - 0.04 in Rain Light Rain
6:01 AM 52.0 °F 50.0 °F 93% 29.50 in 4.0 mi East 11.5 mph - 0.00 in Rain Light Rain
6:53 AM 52.0 °F 51.1 °F 97% 29.52 in 5.0 mi SSE 4.6 mph - 0.02 in   Overcast
7:12 AM 52.0 °F 50.0 °F 93% 29.50 in 2.5 mi ESE 6.9 mph - N/A   Overcast
7:53 AM 53.1 °F 51.1 °F 93% 29.52 in 3.0 mi SE 3.5 mph - N/A   Overcast
8:00 AM 54.0 °F 52.0 °F 93% 29.51 in 1.5 mi SE 4.6 mph - N/A   Overcast
8:08 AM 53.1 °F 52.0 °F 96% 29.52 in 0.2 mi SSE 5.8 mph - N/A Fog Fog
9:09 AM 55.9 °F 54.0 °F 93% 29.53 in 1.0 mi SSE 3.5 mph - N/A   Overcast
9:16 AM 55.9 °F 55.0 °F 97% 29.53 in 0.8 mi SSE 3.5 mph - N/A   Overcast
9:21 AM 57.0 °F 55.0 °F 93% 29.53 in 2.0 mi SSE 3.5 mph - N/A   Mostly Cloudy
9:28 AM 57.9 °F 55.9 °F 93% 29.53 in 5.0 mi SE 3.5 mph - N/A   Mostly Cloudy
9:45 AM 59.0 °F 55.9 °F 90% 29.53 in 10.0 mi SSE 6.9 mph - N/A   Partly Cloudy
9:53 AM 59.0 °F 55.9 °F 90% 29.53 in 10.0 mi SSE 5.8 mph - N/A   Partly Cloudy
10:53 AM 64.9 °F 54.0 °F 68% 29.55 in 10.0 mi South 9.2 mph - N/A   Clear
11:53 AM 68.0 °F 51.1 °F 55% 29.56 in 10.0 mi South 12.7 mph - N/A   Clear
12:53 PM 71.1 °F 45.0 °F 39% 29.55 in 10.0 mi South 17.3 mph 26.5 mph N/A   Clear
1:53 PM 71.1 °F 43.0 °F 36% 29.55 in 10.0 mi South 20.7 mph 31.1 mph N/A   Scattered Clouds
2:53 PM 73.0 °F 44.1 °F 35% 29.54 in 10.0 mi South 23.0 mph 34.5 mph N/A   Scattered Clouds
3:53 PM 75.9 °F 41.0 °F 29% 29.55 in 10.0 mi South 29.9 mph 41.4 mph N/A   Partly Cloudy
6:49 PM 60.8 °F 46.4 °F 59% 29.68 in 5.0 mi SSW 27.6 mph 54.1 mph 0.00 in Rain Light Rain
6:53 PM 60.1 °F 46.9 °F 62% 29.68 in 5.0 mi SSW 27.6 mph 48.3 mph 0.00 in Rain Light Rain
7:53 PM 60.1 °F 46.9 °F 62% 29.69 in 10.0 mi South 16.1 mph - 0.00 in   Overcast
8:53 PM 60.1 °F 48.0 °F 64% 29.69 in 10.0 mi South 11.5 mph - 0.00 in   Mostly Cloudy
9:53 PM 57.9 °F 46.9 °F 67% 29.69 in 10.0 mi South 17.3 mph 21.9 mph N/A   Clear
11:53 PM 55.0 °F 44.1 °F 67% 29.71 in 10.0 mi South 12.7 mph - N/A   Clear